This demonstration page uses our WeatherBlox Daily Observations layout. Learn more.

Hourly Observations for June 30, 2016

Temp ( °F °C ) Dew Point ( °F °C ) Humidity (%) Winds ( mph kmh ) Pressure ( in mb ) Visibility ( mi km ) Precip ( " mm )
12:15 am 00:15 Clear 69 20.7 65 18.2 86 86 E 5 7 29.97 1015 10 16.0934 0 0
12:35 am 00:35 Clear 69 20.5 65 18.3 87 87 E 6 9 29.94 1014 10 16.0934 0 0
12:55 am 00:55 Clear with Nearby Thunderstorms 69 20.7 65 18.6 88 88 NE 7 11 29.94 1014 10 16.0934 0 0
1:15 am 01:15 Windy with Storms Likely 69 20.6 64 17.9 85 85 N 26 43 29.97 1015 10 16.0934 0 0
1:35 am 01:35 Cloudy with Nearby Thunderstorms 65 18.6 62 16.4 87 87 N 18 30 30.03 1017 10 16.0934 0.01 0.254
1:55 am 01:55 Windy with Storms Likely 66 19 62 16.9 88 88 NNW 20 31 30.03 1017 10 16.0934 0.02 0.508
2:15 am 02:15 Cloudy with Light Thunderstorms 65 18.6 62 16.6 88 88 E 6 9 30 1016 10 16.0934 0.02 0.508
2:35 am 02:35 Mostly Cloudy 66 19 63 17.1 89 89 S 5 7 29.97 1015 10 16.0934 0.02 0.508
2:55 am 02:55 Partly Cloudy 67 19.3 63 17.2 88 88 SW 12 19 30 1016 10 16.0934 0.02 0.508
3:15 am 03:15 Clear 66 18.8 62 16.4 86 86 WSW 9 15 30 1016 10 16.0934 0 0
3:30 am 03:30 Clear 65 18.2 61 16.1 88 88 SW 10 17 30 1016 10 16.0934 0 0
3:55 am 03:55 Clear 64 18 60 15.5 85 85 SW 9 15 29.97 1015 10 16.0934 0 0
4:15 am 04:15 Clear 65 18.1 59 15.2 83 83 SSW 10 17 29.94 1014 10 16.0934 0 0
4:35 am 04:35 Clear 65 18.1 59 15 82 82 SW 9 15 29.94 1014 10 16.0934 0 0
4:55 am 04:55 Clear 64 18 59 15 83 83 SW 8 13 29.94 1014 10 16.0934 0 0
5:15 am 05:15 Clear 65 18.2 59 14.8 81 81 SW 9 15 29.94 1014 10 16.0934 0 0
5:35 am 05:35 Partly Cloudy 65 18.3 58 14.6 79 79 W 6 9 29.94 1014 10 16.0934 0 0
5:55 am 05:55 Clear 65 18.5 59 15.1 81 81 WNW 13 20 30 1016 10 16.0934 0 0
6:15 am 06:15 Sunny 65 18.6 60 15.3 81 81 W 13 20 29.97 1015 10 16.0934 0 0
6:35 am 06:35 Sunny 66 19.1 59 15.1 78 78 W 8 13 29.97 1015 10 16.0934 0 0
6:55 am 06:55 Sunny 65 18.6 60 15.5 82 82 W 8 13 29.97 1015 10 16.0934 0 0
7:15 am 07:15 Sunny 65 18.5 60 15.5 83 83 W 8 13 29.94 1014 10 16.0934 0 0
7:35 am 07:35 Sunny 65 18.5 60 15.7 84 84 WSW 6 9 29.94 1014 10 16.0934 0 0
7:55 am 07:55 Sunny 65 18.6 60 15.8 84 84 W 5 7 29.97 1015 10 16.0934 0 0
8:15 am 08:15 Mostly Cloudy 65 18.5 61 16 85 85 WSW 3 6 29.97 1015 10 16.0934 0 0
8:35 am 08:35 Mostly Cloudy 66 19 61 16.2 84 84 Calm 29.97 1015 10 16.0934 0 0
8:55 am 08:55 Mostly Cloudy with Light Rain 66 19.1 62 16.4 84 84 S 3 6 29.97 1015 10 16.0934 0 0
9:15 am 09:15 Partly Cloudy 67 19.5 62 16.6 83 83 NE 3 6 30 1016 10 16.0934 0 0
9:35 am 09:35 Sunny 69 20.4 62 16.7 79 79 NNE 10 17 29.97 1015 10 16.0934 0 0
9:55 am 09:55 Partly Cloudy 68 20.1 61 16.1 78 78 NNE 14 22 30.03 1017 10 16.0934 0 0
10:15 am 10:15 Mostly Cloudy 69 20.7 62 16.6 77 77 NE 12 19 30 1016 10 16.0934 0 0
10:35 am 10:35 Mostly Cloudy 69 20.8 62 16.5 77 77 NNE 15 24 30 1016 10 16.0934 0 0
10:55 am 10:55 Mostly Cloudy 71 21.6 62 16.8 74 74 NE 8 13 30 1016 10 16.0934 0 0
11:15 am 11:15 Partly Cloudy 72 22.1 63 17.1 73 73 NNE 9 15 30 1016 10 16.0934 0 0
11:35 am 11:35 Partly Cloudy 73 22.5 63 17 71 71 N 9 15 30 1016 10 16.0934 0 0
11:55 am 11:55 Partly Cloudy 74 23.1 63 17.3 70 70 N 6 9 30 1016 10 16.0934 0 0
12:15 pm 12:15 Sunny 74 23.6 63 17.1 67 67 N 8 13 30 1016 10 16.0934 0 0
12:35 pm 12:35 Sunny 76 24.5 62 16.9 63 63 NNW 10 17 29.97 1015 10 16.0934 0 0
12:55 pm 12:55 Sunny 77 25 62 16.4 59 59 N 7 11 29.97 1015 10 16.0934 0 0
1:15 pm 13:15 Sunny 78 25.7 62 16.4 57 57 N 9 15 29.97 1015 10 16.0934 0 0
1:35 pm 13:35 Sunny 78 25.8 61 15.9 54 54 N 10 17 29.97 1015 10 16.0934 0 0
1:55 pm 13:55 Sunny 79 25.9 61 16.1 55 55 N 10 17 29.97 1015 10 16.0934 0 0
2:15 pm 14:15 Sunny 79 26 59 15.2 51 51 N 10 17 29.97 1015 10 16.0934 0 0
2:35 pm 14:35 Sunny 80 26.4 61 16.1 53 53 N 9 15 29.97 1015 10 16.0934 0 0
2:55 pm 14:55 Sunny 80 26.7 61 15.9 52 52 NNE 10 17 29.94 1014 10 16.0934 0 0
3:15 pm 15:15 Partly Cloudy 80 26.6 60 15.6 51 51 N 10 17 29.94 1014 10 16.0934 0 0
3:35 pm 15:35 Sunny 81 27 60 15.4 49 49 N 8 13 29.94 1014 10 16.0934 0 0
3:55 pm 15:55 Partly Cloudy 80 26.6 60 15.6 51 51 N 10 17 29.94 1014 10 16.0934 0 0
4:15 pm 16:15 Partly Cloudy 79 26.1 60 15.7 53 53 N 8 13 29.94 1014 10 16.0934 0 0
4:35 pm 16:35 Sunny 78 25.8 61 16.3 56 56 N 8 13 29.94 1014 10 16.0934 0 0
4:55 pm 16:55 Sunny 78 25.8 61 16.3 56 56 NNE 8 13 29.94 1014 10 16.0934 0 0
5:15 pm 17:15 Sunny 80 26.7 60 15.7 51 51 NNE 12 19 29.94 1014 10 16.0934 0 0
5:35 pm 17:35 Sunny 79 26.1 60 15.5 52 52 NNE 9 15 29.94 1014 10 16.0934 0 0
5:55 pm 17:55 Sunny 79 26.1 60 15.7 53 53 NE 7 11 29.94 1014 10 16.0934 0 0
6:15 pm 18:15 Sunny 80 26.5 59 15.2 50 50 NNE 14 22 29.94 1014 10 16.0934 0 0
6:35 pm 18:35 Sunny 80 26.5 58 14.6 48 48 NNE 12 19 29.94 1014 10 16.0934 0 0
7:15 pm 19:15 Sunny 78 25.5 59 15.1 53 53 NNE 7 11 29.94 1014 10 16.0934 0 0
7:35 pm 19:35 Sunny 77 25.1 59 15 54 54 NNE 8 13 29.94 1014 10 16.0934 0 0
7:55 pm 19:55 Sunny 76 24.5 59 14.8 55 55 NNE 7 11 29.94 1014 10 16.0934 0 0
8:15 pm 20:15 Sunny 75 23.7 59 15 58 58 NNE 6 9 29.94 1014 10 16.0934 0 0
8:35 pm 20:35 Sunny 73 22.7 59 14.9 62 62 NNE 7 11 30 1016 10 16.0934 0 0
8:55 pm 20:55 Sunny 71 21.7 59 15.1 66 66 NNE 7 11 30 1016 10 16.0934 0 0
9:15 pm 21:15 Clear 69 20.6 60 15.5 73 73 NNE 7 11 30 1016 10 16.0934 0 0
9:35 pm 21:35 Clear 68 19.8 61 15.9 78 78 NNE 3 6 30.03 1017 10 16.0934 0 0
9:55 pm 21:55 Clear 67 19.3 61 16.1 82 82 NNE 6 9 30.03 1017 10 16.0934 0 0
10:15 pm 22:15 Clear 66 19 61 16.1 83 83 NNE 3 6 30.06 1018 10 16.0934 0 0
10:35 pm 22:35 Clear 65 18.6 61 16 85 85 NE 6 9 30.06 1018 10 16.0934 0 0
10:55 pm 22:55 Clear 65 18.1 61 15.9 87 87 NNE 6 9 30.06 1018 10 16.0934 0 0
11:15 pm 23:15 Clear 65 18.3 60 15.8 85 85 NNE 5 7 30.06 1018 10 16.0934 0 0
11:35 pm 23:35 Clear 64 18 60 15.8 87 87 NNE 6 9 30.06 1018 10 16.0934 0 0
11:55 pm 23:55 Clear 64 17.8 60 15.8 88 88 NNE 5 7 30.06 1018 10 16.0934 0 0

Powered by AerisWeather